www.pogodaiklimat.ru

Погода и климат >> Архив погоды >> Бельгия >> Chievres


ПОГОДА в Chievres

  • Прогноз погоды в Chievres
  • Монитор погоды в Chievres
  • Климат города

АРХИВ ПОГОДЫ в Chievres

Время (UTC), дата Ветер
(напр.,м/с)
 
Видим.   Явления Облачность Т
(С)
Тd
(С)
f
(%)
Тe
(С)
Тes
(С)
Комфортность P
(гПа)
Po
(гПа)
Тmin
(С)
Tmax
(С)
R
(мм)
R24
(мм)
S
(см)
22 11.08
{1}
20 км н/о +14.1 +10.0 76 1021.6 1014.3
23 11.08
{1}
20 км н/о +13.3 +9.9 80 1021.2 1014.1
00 12.08
{3}
20 км н/о +14.0 +9.2 73 1020.6 1013.3
02 12.08 ЮВ 3
{4}
20 км н/о +15.1 +8.5 65 +14 +14 1019.2 1012.2
01 12.08
{3}
20 км н/о +14.5 +8.5 67 1019.7 1012.7
03 12.08 ЮВ 3
{5}
20 км н/о +15.2 +8.8 66 +15 +15 1018.3 1011.2
04 12.08 Ю 3
{5}
20 км н/о +15.2 +8.5 64 +15 +15 1017.7 1010.7
05 12.08 Ю 3
{5}
20 км н/о +15.2 +8.2 63 +15 +15 1017.7 1010.6
06 12.08 Ю 3
{5}
15 км н/о +16.2 +8.3 59 +16 +16 1017.2 1010.2 +13.0
08 12.08 Ю 5
{7}
20 км н/о +21.3 +8.2 43 +22 +22 комфорт 1016.3 1009.5
07 12.08 Ю 3
{5}
20 км н/о +18.7 +8.9 53 +19 +19 1017.1 1010.1
09 12.08 Ю 6
{8}
20 км н/о +22.7 +8.7 41 +24 +24 комфорт 1015.8 1009.0
10 12.08 ЮЗ 6
{9}
20 км н/о +24.6 +8.9 37 +25 +25 комфорт 1015.5 1008.7
11 12.08 ЮЗ 6
{9}
20 км н/о +25.4 +9.6 37 +26 +26 жарко 1014.8 1008.1
12 12.08 Ю 5
{10}
20 км н/о +25.8 +9.1 35 +26 +26 жарко 1014.0 1007.2
14 12.08 Ю 5
{9}
20 км н/о +27.1 +9.5 33 +27 +27 жарко 1012.3 1005.6
13 12.08 Ю 5
{9}
20 км н/о +26.9 +9.8 34 +27 +27 жарко 1013.1 1006.3
15 12.08 Ю 5
{9}
20 км н/о +27.4 +10.2 34 +28 +28 жарко 1011.5 1004.7
16 12.08 ЮЗ 4
{8}
20 км н/о +26.8 +10.1 35 +27 +27 жарко 1010.7 1004.0
17 12.08 Ю 5
{8}
20 км н/о +26.2 +10.0 36 +27 +27 жарко 1010.2 1003.5
18 12.08 Ю 2
{9}
20 км н/о +25.4 +10.5 39 +26 +26 жарко 1009.6 1002.7 +28.1
20 12.08
{2}
20 км н/о +22.2 +13.7 59 1009.0 1002.1
19 12.08
{3}
20 км н/о +24.0 +11.9 47 1009.2 1002.6
21 12.08
{3}
20 км н/о +21.2 +14.0 63 1008.8 1002.1
22 12.08
{4}
20 км н/о +21.1 +13.4 61 1008.7 1001.7
23 12.08 З 4
{6}
20 км н/о +20.8 +14.4 67 +24 +24 комфорт 1009.1 1002.2
00 13.08
{9}
17 км слаб. дождь н/о +18.0 +16.2 89 1009.2 1002.2 0.7
02 13.08 Ю 2
{4}
16 км н/о +17.1 +16.6 97 +17 +17 1007.2 1000.2
01 13.08
{2}
11 км {дождь} н/о +17.1 +16.7 97 1007.7 1000.8
03 13.08 ЮВ 2
{4}
20 км {дождь} н/о +17.2 +16.4 95 +18 +18 1006.8 999.9
04 13.08 Ю 2
{5}
15 км н/о +17.1 +16.6 97 +17 +17 1007.2 1000.2
05 13.08
{3}
9000 м {дождь} н/о +17.1 +16.8 98 1007.0 1000.1
06 13.08 Ю 3
{5}
18 км {дождь} н/о +17.6 +17.0 96 +18 +18 1007.0 1000.1 +16.7 3
08 13.08 ЮЗ 4
{9}
20 км н/о +17.8 +16.9 94 +18 +18 1007.2 1000.2
07 13.08 ЮЗ 4
{5}
20 км {дождь} н/о +17.7 +16.9 95 +17 +17 1007.2 1000.2
09 13.08 ЮЗ 3
{9}
20 км {дождь} н/о +18.8 +16.0 84 +20 +20 1007.3 1000.5
10 13.08 ЮЗ 5
{8}
20 км н/о +20.7 +16.1 75 +24 +24 комфорт 1007.5 1000.7
11 13.08 З 3
{9}
20 км {дождь} н/о +18.6 +15.8 84 +20 +20 1007.7 1000.8
12 13.08 ЮЗ 5
{9}
20 км {дождь} н/о +19.5 +17.3 87 +21 +21 комфорт 1007.7 1000.8 0.5
14 13.08 З 7
{11}
20 км н/о +21.6 +13.8 61 +24 +24 комфорт 1007.7 1000.7
13 13.08 ЮЗ 5
{9}
20 км н/о +21.7 +15.1 66 +25 +25 комфорт 1007.7 1000.7
15 13.08 З 5
{11}
20 км н/о +21.5 +14.2 63 +24 +24 комфорт 1007.8 1001.0
16 13.08 З 4
{10}
20 км {дождь} н/о +19.3 +16.0 81 +21 +21 комфорт 1008.6 1001.7
17 13.08
{5}
20 км н/о +20.1 +15.9 77 1008.5 1001.6
18 13.08 З 7
{11}
20 км {дождь} н/о +20.7 +14.3 67 +23 +23 комфорт 1008.8 1002.1 +23.3 0.6
20 13.08 З 4
{6}
20 км н/о +18.2 +14.6 80 +18 +18 1010.5 1003.6
19 13.08 З 4
{10}
20 км н/о +19.0 +14.5 75 +20 +20 1009.7 1002.8
21 13.08 З 3
{10}
20 км н/о +17.3 +14.1 81 +17 +17 1010.7 1003.8
22 13.08 ЮЗ 3
{5}
20 км н/о +15.8 +13.9 88 +15 +15 1011.2 1004.2
23 13.08 ЮЗ 3
{4}
20 км н/о +15.8 +14.2 90 +15 +15 1011.6 1004.6
00 14.08 ЮЗ 4
{10}
20 км н/о +15.8 +14.4 91 +15 +15 1012.0 1005.0
02 14.08 ЮЗ 4
{5}
16 км н/о +15.7 +15.0 96 +15 +15 1012.6 1005.6
01 14.08 ЮЗ 3
{5}
17 км н/о +15.1 +14.4 96 +14 +14 1012.2 1005.2
03 14.08 ЮЗ 4
{5}
13 км н/о +16.1 +15.2 94 +15 +15 1012.8 1005.8
04 14.08 ЮЗ 3
{6}
10 км н/о +16.3 +15.5 95 +16 +16 1013.2 1006.2
05 14.08 ЮЗ 2
{4}
9000 м н/о +16.5 +15.7 95 +17 +17 1013.7 1006.7
06 14.08 ЮЗ 3
{6}
8000 м н/о +17.0 +16.1 94 +17 +17 1014.6 1007.6 +15.0
08 14.08 ЮЗ 3
{4}
9000 м н/о +18.6 +16.8 89 +20 +20 1015.8 1009.0
07 14.08 ЮЗ 2
{4}
9000 м н/о +17.7 +16.5 93 +18 +18 1015.3 1008.3
09 14.08 З 3
{5}
16 км н/о +19.5 +16.1 81 +22 +22 комфорт 1016.2 1009.2
10 14.08 З 4
{6}
9000 м н/о +19.7 +16.2 80 +22 +22 комфорт 1016.7 1009.7
11 14.08 З 3
{6}
16 км н/о +21.7 +16.0 70 +25 +25 комфорт 1016.7 1009.8
12 14.08 З 5
{7}
20 км н/о +22.0 +14.3 62 +25 +25 комфорт 1017.1 1010.2
14 14.08 З 6
{9}
20 км н/о +22.1 +13.3 57 +25 +25 комфорт 1017.7 1010.8
13 14.08 З 5
{7}
20 км н/о +22.0 +14.5 62 +25 +25 комфорт 1017.3 1010.6
15 14.08 З 4
{9}
20 км н/о +21.8 +13.1 58 +24 +24 комфорт 1017.8 1011.0
16 14.08 З 4
{8}
20 км н/о +22.2 +12.4 54 +25 +25 комфорт 1018.0 1011.1
17 14.08 З 5
{8}
20 км н/о +21.7 +11.7 53 +24 +24 комфорт 1018.2 1011.2
18 14.08 СЗ 3
{9}
20 км н/о +20.5 +12.5 60 +23 +23 комфорт 1018.6 1011.6 +23.3
20 14.08 З 2
{5}
20 км н/о +19.0 +13.2 69 +21 +21 комфорт 1019.5 1012.6
19 14.08 З 3
{6}
20 км н/о +19.6 +12.5 64 +21 +21 комфорт 1019.1 1012.1
21 14.08 ЮЗ 2
{6}
20 км н/о +17.5 +13.3 76 +18 +18 1019.7 1012.7
22 14.08 ЮЗ 2
{3}
20 км н/о +14.8 +12.7 87 +14 +14 1020.2 1013.1
23 14.08 ЮЗ 2
{3}
20 км н/о +15.8 +13.7 87 +16 +16 1020.1 1013.1
00 15.08 ЮЗ 3
{6}
20 км н/о +16.6 +14.0 85 +16 +16 1020.0 1012.8
02 15.08 ЮЗ 3
{6}
20 км н/о +16.6 +14.7 89 +16 +16 1019.3 1012.3
01 15.08 ЮЗ 4
{6}
20 км н/о +16.7 +14.5 87 +16 +16 1019.7 1012.7
03 15.08 ЮЗ 3
{6}
20 км н/о +16.3 +14.8 91 +16 +16 1019.3 1012.2
04 15.08 ЮЗ 3
{5}
20 км н/о +16.0 +14.8 93 +15 +15 1019.2 1012.2
05 15.08 ЮЗ 3
{5}
18 км н/о +16.2 +15.0 93 +16 +16 1019.7 1012.6
06 15.08 ЮЗ 3
{6}
16 км н/о +16.8 +15.4 91 +17 +17 1019.7 1012.7 +14.3
08 15.08 ЮЗ 5
{7}
20 км н/о +18.7 +15.7 83 +19 +19 1020.5 1013.5
07 15.08 ЮЗ 4
{6}
20 км н/о +17.5 +15.3 87 +17 +17 1020.2 1013.2
09 15.08 ЮЗ 3
{7}
20 км н/о +18.7 +15.7 83 +20 +20 1020.8 1013.8
10 15.08 З 3
{6}
19 км н/о +18.6 +15.7 83 +20 +20 1021.0 1014.0
11 15.08 З 4
{8}
20 км слаб. морось {дождь} н/о +17.8 +16.2 90 +18 +18 1020.8 1013.8
12 15.08 ЮЗ 4
{8}
20 км {дождь, морось} н/о +19.3 +15.6 79 +21 +21 комфорт 1020.7 1013.7 0.1
14 15.08 ЮЗ 5
{8}
20 км н/о +20.5 +14.1 67 +23 +23 комфорт 1020.5 1013.6
13 15.08 З 4
{8}
19 км н/о +20.3 +15.1 72 +23 +23 комфорт 1020.7 1013.8
15 15.08 ЮЗ 5
{8}
20 км н/о +21.3 +14.4 65 +24 +24 комфорт 1020.3 1013.3
16 15.08 ЮЗ 4
{8}
20 км н/о +21.2 +14.2 64 +24 +24 комфорт 1020.1 1013.2
17 15.08 ЮЗ 4
{7}
20 км н/о +21.3 +14.2 64 +24 +24 комфорт 1019.7 1012.8
18 15.08 ЮЗ 4
{8}
20 км н/о +21.0 +14.3 66 +24 +24 комфорт 1019.3 1012.3 +21.5 0.1
20 15.08 Ю 3
{3}
20 км н/о +17.8 +14.4 80 +18 +18 1019.6 1012.6
19 15.08 Ю 2
{5}
20 км н/о +18.7 +14.4 76 +20 +20 1019.3 1012.3
21 15.08 Ю 3
{5}
20 км н/о +16.8 +14.2 85 +17 +17 1019.3 1012.3
22 15.08 Ю 2
{6}
14 км н/о +16.0 +14.2 89 +16 +16 1019.6 1012.6
23 15.08 Ю 2
{3}
15 км н/о +15.8 +14.1 90 +16 +16 1019.2 1012.2
00 16.08 Ю 2
{6}
10 км н/о +14.3 +13.2 93 +14 +14 1019.2 1012.1
02 16.08 Ю 3
{3}
12 км н/о +16.2 +14.4 89 +16 +16 1018.2 1011.2
01 16.08 Ю 2
{3}
14 км н/о +16.6 +14.5 87 +17 +17 1018.7 1011.7
03 16.08 Ю 2
{3}
14 км н/о +16.5 +14.5 88 +17 +17 1018.0 1010.8
04 16.08 Ю 2
{3}
11 км н/о +16.5 +14.5 88 +17 +17 1017.7 1010.7
05 16.08 Ю 2
{3}
12 км н/о +16.6 +14.1 85 +17 +17 1017.7 1010.7
06 16.08 Ю 2
{3}
13 км н/о +17.1 +14.4 84 +17 +17 1017.3 1010.3 +14.1
08 16.08 Ю 3
{4}
13 км н/о +19.5 +14.9 75 +22 +22 комфорт 1017.1 1010.1
07 16.08 Ю 3
{4}
14 км н/о +18.1 +14.6 80 +18 +18 1017.2 1010.2
09 16.08 ЮЗ 4
{6}
20 км н/о +21.5 +15.3 68 +25 +25 комфорт 1016.7 1009.8
10 16.08 ЮЗ 4
{7}
20 км н/о +22.0 +15.1 65 +26 +26 душно 1016.3 1009.6
11 16.08 ЮЗ 4
{8}
17 км н/о +23.8 +15.0 58 +27 +27 жарко 1015.8 1009.1
12 16.08 ЮЗ 4
{8}
20 км н/о +24.1 +15.1 57 +27 +27 жарко 1015.6 1008.7
14 16.08 ЮЗ 3
{6}
20 км н/о +26.4 +14.6 48 +29 +29 жарко 1014.7 1007.8
13 16.08 ЮЗ 3
{13}
19 км н/о +25.7 +15.1 52 +29 +29 душно 1015.1 1008.3
15 16.08 З 3
{13}
20 км н/о +26.6 +14.9 49 +29 +29 жарко 1014.5 1007.7
16 16.08 З 4
{7}
20 км н/о +25.9 +13.8 47 +28 +28 жарко 1014.2 1007.6
17 16.08 З 3
{7}
20 км н/о +25.8 +14.2 49 +28 +28 жарко 1014.0 1007.2
18 16.08 С 6
{13}
20 км н/о +23.4 +15.7 62 +28 +28 душно 1014.2 1007.3 +27.1
20 16.08 С 2
{5}
20 км н/о +20.4 +16.0 76 +24 +24 комфорт 1014.8 1008.0
19 16.08 С 4
{8}
20 км н/о +21.5 +15.9 70 +25 +25 комфорт 1014.6 1007.7
21 16.08 СЗ 2
{8}
20 км н/о +20.1 +16.1 78 +23 +23 комфорт 1015.5 1008.6
22 16.08 СЗ 5
{9}
15 км н/о +18.7 +16.3 86 +19 +19 1016.2 1009.2
23 16.08 С 3
{8}
9000 м слаб. дождь н/о +17.2 +16.1 93 +17 +17 1016.7 1009.7
00 17.08 С 3
{9}
5000 м дождь н/о +15.9 +15.8 99 +15 +15 1016.7 1009.7 4
02 17.08 СЗ 2
{5}
12 км слаб. дождь н/о +15.6 +15.3 98 +15 +15 1016.8 1009.8
01 17.08 С 2
{4}
8000 м {дождь} н/о +16.0 +15.9 99 +16 +16 1016.2 1009.2
03 17.08
{6}
20 км {дождь, морось} н/о +15.1 +14.4 96 1017.5 1010.3
04 17.08
{2}
20 км н/о +14.8 +13.7 93 1017.3 1010.3
05 17.08
{2}
17 км н/о +14.3 +13.8 97 1017.7 1010.6
06 17.08 З 2
{6}
16 км {дождь, морось} н/о +14.8 +14.3 97 +14 +14 1018.3 1011.2 +14.1 5
08 17.08
{3}
14 км н/о +16.3 +15.1 93 1019.3 1012.2
07 17.08 З 2
{4}
12 км н/о +15.1 +14.4 96 +15 +15 1018.7 1011.7
09 17.08 С 3
{4}
18 км н/о +19.2 +15.3 78 +21 +21 комфорт 1019.7 1012.8
10 17.08 С 2
{5}
20 км н/о +20.2 +13.2 64 +23 +23 комфорт 1020.0 1013.0
11 17.08
{4}
20 км н/о +21.1 +12.0 56 1020.2 1013.2
12 17.08 СЗ 3
{6}
20 км н/о +21.5 +11.6 53 +24 +24 комфорт 1020.3 1013.5
14 17.08 СЗ 2
{6}
20 км н/о +21.3 +11.1 52 +23 +23 комфорт 1020.2 1013.3
13 17.08 СЗ 3
{6}
17 км н/о +21.5 +11.3 52 +23 +23 комфорт 1020.5 1013.6
15 17.08 З 3
{7}
20 км н/о +22.9 +11.2 48 +25 +25 комфорт 1020.0 1013.1
16 17.08 СЗ 5
{7}
20 км н/о +22.4 +11.0 48 +24 +24 комфорт 1020.1 1013.2
17 17.08 СЗ 3
{6}
20 км н/о +22.0 +11.2 50 +24 +24 комфорт 1020.1 1013.2
18 17.08 С 2
{7}
20 км н/о +20.2 +12.0 59 +23 +23 комфорт 1020.7 1013.7 +23.2
20 17.08
{3}
20 км н/о +17.3 +12.2 72 1021.8 1014.7
19 17.08 С 2
{3}
20 км н/о +18.7 +12.4 67 +20 +20 1021.2 1014.2
21 17.08 З 3
{3}
20 км н/о +15.8 +12.5 81 +15 +15 1022.6 1015.5
22 17.08 З 2
{4}
20 км н/о +14.5 +11.1 80 +14 +14 1022.8 1015.7
23 17.08 З 2
{3}
20 км н/о +14.5 +10.7 78 +14 +14 1023.1 1015.8
00 18.08
{4}
20 км н/о +12.7 +10.3 85 1023.2 1016.0
02 18.08 Ю 2
{2}
19 км н/о +11.6 +10.1 91 +10 +10 1023.2 1016.0
01 18.08
{2}
20 км н/о +12.1 +10.2 88 1023.1 1015.8
03 18.08 Ю 2
{3}
20 км н/о +11.6 +10.4 92 +10 +10 1023.0 1015.7
04 18.08 Ю 2
{3}
16 км н/о +11.8 +10.8 94 +11 +11 1023.0 1015.7
05 18.08 Ю 2
{3}
16 км н/о +12.0 +11.0 94 +11 +11 1023.2 1016.0
06 18.08 Ю 2
{3}
20 км н/о +14.0 +11.9 87 +13 +13 1023.2 1016.2 +11.3
08 18.08 ЮЗ 3
{4}
19 км н/о +16.4 +13.1 81 +16 +16 1023.7 1016.7
07 18.08 ЮЗ 3
{4}
20 км н/о +15.0 +12.7 86 +14 +14 1023.6 1016.3
09 18.08 ЮЗ 3
{5}
20 км н/о +19.4 +13.9 70 +21 +21 комфорт 1023.7 1016.7
10 18.08 ЮЗ 3
{6}
20 км н/о +19.7 +13.0 65 +22 +22 комфорт 1023.7 1016.7
11 18.08 ЮЗ 3
{6}
20 км н/о +20.1 +13.0 64 +22 +22 комфорт 1023.7 1016.7
12 18.08 ЮЗ 4
{7}
20 км н/о +21.2 +12.6 58 +23 +23 комфорт 1023.6 1016.7
14 18.08 ЮЗ 4
{7}
20 км н/о +21.2 +13.3 61 +24 +24 комфорт 1023.1 1016.2
13 18.08 ЮЗ 5
{7}
20 км н/о +21.1 +12.8 59 +23 +23 комфорт 1023.3 1016.3
15 18.08 З 4
{7}
20 км н/о +20.8 +13.1 61 +23 +23 комфорт 1023.0 1016.1
16 18.08 ЮЗ 4
{6}
20 км н/о +21.0 +12.6 59 +24 +24 комфорт 1022.8 1015.8
17 18.08 З 4
{8}
20 км н/о +20.3 +12.4 60 +22 +22 комфорт 1022.7 1015.7
18 18.08 ЮЗ 4
{8}
20 км н/о +20.2 +12.8 62 +22 +22 комфорт 1022.8 1015.8 +22.8
20 18.08 ЮЗ 2
{3}
20 км н/о +19.1 +13.6 70 +21 +21 комфорт 1023.3 1016.3
19 18.08 З 2
{6}
20 км н/о +19.6 +13.3 67 +22 +22 комфорт 1023.1 1016.1
21 18.08 З 2
{6}
20 км н/о +18.6 +13.9 74 +20 +20 1023.5 1016.5

 

Местоположение метеостанции Chievres (Бельгия): широта 50.57 долгота 3.83 высота над уровнем моря 63 м.

В архиве по умолчанию представлена погода в Chievres за последнюю неделю. Архивные данные за месяц целиком и за предыдущие месяцы, начиная с января 2011 года, Вы можете получить, выбрав интересующий диапазон дат из раскрывающегося списка и нажав кнопку "Ввод!".


*Определитесь, кто Вы:
робот инопланетянин человек

Внимание! Время в таблицах - всемирное. Для получения местного времени необходимо прибавить поправку, которая в Chievres равна 1 ч.

Смотрите также архив погоды в соседних городах и на ближайших метеорологических станциях:

Погода в Semmerzake (Бельгия) (42 км)
Погода в Uccle (Бельгия) (45 км)
Погода в Charleroi (Бельгия) (45 км)
Погода в Melle (Бельгия) (46 км)
Погода в Lille (Франция) (52 км)
Погода в Ernage (Бельгия) (61 км)
Погода в Bruxelles (Бельгия) (61 км)
Погода в Beitem (Бельгия) (62 км)
Погода в Gent (Бельгия) (68 км)
Погода в Beauvechain (Бельгия) (69 км)

Пояснения к столбцам:

Ветер - указаны скорость ветра в м/с - средняя за 10 мин, порывы в срок и между сроками (в фигурных скобках) и направление, откуда дует ветер: С - северный, СВ - северо-восточный, В - восточный, ЮВ - юго-восточный, Ю - южный, ЮЗ - юго-западный, З - западный, СЗ - северо-западный.
Видимость - горизонтальная дальность видимости в метрах или километрах. При видимости от 1 до 10 км при отсутствии осадков обычно наблюдается дымка, при ухудшении видимости до 1 км и менее - туман. В сухую погоду видимость может ухудшаться дымом, пылью или мглою.
Явления - указаны атмосферные явления, наблюдавшиеся в срок или в последний час перед сроком; фигурными скобками обозначены явления, наблюдавшиеся между сроками (за 1-3 часа до срока); квадратными скобками обозначены град или гололедные отложения с указанием их диаметра в мм.
Облачность - указаны через наклонную черту общая и нижняя облачность в баллах и высота нижней границы облаков в метрах; квадратными скобками обозначены формы облаков: Ci - перистые, Cs - перисто-слоистые, Cc - перисто-кучевые, Ac - высококучевые, As - высокослоистые, Sc - слоисто-кучевые, Ns - слоисто-дождевые, Cu - кучевые, Cb - кучево-дождевые. Подробнее классификацию облаков см. в Атласе облаков (PDF).
T - Температура воздуха - температура, измеренная на высоте 2 м над землей.
Td - Температура точки росы - температура, при понижении до которой содержащийся в воздухе водяной пар достигнет насыщения.
f - Относительная влажность воздуха - влажноcть воздуха, измеренная на высоте 2 м над землей.
Te - Эффективная температура - температура, которую ощущает одетый по сезону человек в тени. Характеристика душности погоды. При расчете учитывается влияние влажности воздуха и скорости ветра на теплоощущения человека.
Tes - Эффективная температура на солнце - температура, которую ощущает человек, с поправкой на солнечный нагрев. Характеристика знойности погоды. Зависит от высоты солнца над горизонтом, облачности и скорости ветра. Ночью, в пасмурную погоду, а также при ветре 12 м/с и более поправка равна нулю.
P - Атмосферное давление - приведенное к уровню моря атмосферное давление.
Po - Атмосферное давление - измеренное на уровне метеостанции атмосферное давление.
Tmin - Минимальная температура - минимум температуры воздуха на высоте 2 м над землей.
Tmax - Максимальная температура - максимум температуры воздуха на высоте 2 м над землей.
R - Количество осадков - Количество выпавших осадков за период времени, мм. При наведении курсора мыши на число - период времени, за который выпало указанное количество осадков.
R24 - Количество осадков - Количество выпавших осадков за 24 часа, мм.
S - Снежный покров - Высота снежного покрова, см. При наведении курсора мыши на число - состояние снежного покрова и степень покрытия местности в баллах.